Location: Newark
(51.3318°N, 0.0053°E)
Time: 16:46:38
(UTC+00:00)

LO-87 - Pass Details

Date: 03 July 2022
Orbit: 450 x 466 km, 97.4° (Epoch: 18 August)

Event Time Altitude Azimuth Distance (km) Brightness Sun altitude
Exits shadow 22:21:05 11° 108° (ESE) 1,568 ? -12.4°
Maximum altitude 22:23:27 19° 63° (ENE) 1,169 ? -12.5°
Drops below altitude 10° 22:25:59 10° 17° (NNE) 1,633 ? -12.7°
Sets 22:28:27 0° 359° (N) 2,519 ? -12.8°
